Regional Weather Roundup
Issued by NWS Newport/Morehead, NC

Current Version | Previous Version | Graphics & Text | Print | Product List | Glossary On
Versions: 1 2 3 4 5 6 7 8 9 10 11 12 13 14 15 16 17 18 19 20 21 22 23 24 25 26 27 28 29 30 31 32 33 34 35 36 37 38 39 40 41 42 43 44 45 46 47 48 49 50
000 ASUS42 KMHX 290625 RWRMHX WEATHER ROUNDUP FOR EASTERN NORTH CAROLINA NATIONAL WEATHER SERVICE NEWPORT/MOREHEAD CITY NC 200 AM EDT SAT APR 29 2017 NOTE: "FAIR" INDICATES FEW OR NO CLOUDS BELOW 12,000 FEET WITH NO SIGNIFICANT WEATHER AND/OR OBSTRUCTIONS TO VISIBILITY NCZ015>017-031-032-045>047-102-103-290700- NORTH COAST CITY SKY/WX TMP DP RH WIND PRES REMARKS EDENTON CLOUDY 76 73 88 SW10 30.13F ELIZABETH CITY MOCLDY 75 74 96 S10 30.11F KITTY HAWK CLEAR 73 73 100 S5 30.12F MANTEO MOCLDY 73 72 95 SW20 30.14F $$ NCZ045>047-081-094-103-104-290700- CENTRAL COAST CITY SKY/WX TMP DP RH WIND PRES REMARKS FRISCO CLOUDY 74 72 93 SW9 30.17F FOG $$ NCZ095-097-098-100-101-290700- SOUTHERN COAST CITY SKY/WX TMP DP RH WIND PRES REMARKS BEAUFORT MOCLDY 73 73 100 S9 30.17F FOG CEDAR ISLAND NOT AVBL JACKSONVILLE MOCLDY 75 73 93 S10G18 30.14F PINEY ISLAND PTCLDY N/A N/A N/A S9 30.16F WILMINGTON PTCLDY 74 73 97 S9 30.15F $$ NCZ011>013-027>030-043-044-078>080-089-090>093-098-290700- COASTAL PLAIN CITY SKY/WX TMP DP RH WIND PRES REMARKS AHOSKIE N/A 74 72 92 S7 30.09F CLINTON MOCLDY 75 73 93 S5 30.14F ELIZABETHTOWN MOCLDY 76 73 90 S7 30.14F GOLDSBORO MOCLDY 75 75 100 S12 30.11F GREENVILLE MOCLDY 73 73 100 SW10 30.13F HAVELOCK MOCLDY 76 72 87 S10 30.17R KENANSVILLE CLOUDY 75 72 88 SW3 30.14F KINSTON CLOUDY 75 72 89 S7 30.14F NEW BERN CLOUDY 75 73 93 S8 30.16F RICHLANDS CLOUDY 75 72 90 S12 30.15F ROCKY MOUNT CLOUDY 76 73 91 S13 30.11F WASHINGTON CLOUDY 74 72 92 SW7 30.13F WHITEVILLE CLOUDY 76 73 88 S8 30.15S $$ AMZ130-135-150-152-154-156-158-170-250-252-270-ANZ085-086-088-633-658-670-290700- MARINE OBSERVATIONS STATION/POSITION TIME TEMP WIND PRES WAVE SWELL AIR SEA DIR/SP/G HT/PER HT/PER (UTC) (F) (DEG/KT/KT) (MB) (FT/S) (FT/S) CHESAPEAKE LIGHT NOT AVBL 64 E VA BEACH 0550 62 57 210/ 14/ 16 1020.5 4/ 8 2/ 8 DUCK 0600 74 58 200/ 14/ 17 1019.4 2 E DUCK 0600 59 N/A 2/ 8 OREGON INLET 0600 74 76 190/ 20/ 23 1020.5 13E OREGON INLT 0548 62 N/A 4/ 8 2/ 8 HATTERAS CG 0600 73 72 180/ 6/ 11 1021.4 DIAMOND BUOY 0550 77 76 200/ 17/ 19 1021.8 4/ 8 2/ 8 CAPE LOOKOUT 0600 73 190/ 7/ 9 1021.4 BEAUFORT LAB 0600 73 70 200/ 8/ 11 1020.8 30 SE NEW RVR IN 0608 72 210/ 8/ 10 1021.8 30 SE NEW RVR IN 0613 72 N/A 3/ 8 27 SE WRIGHTSVLE 0608 73 73 200/ 8/ 12 1020.5 5 SE WRIGHTSVLE 0608 72 70 200/ 10/ 16 1021.0 225 S CAPE HAT 0550 74 74 160/ 14/ 17 1023.8 4/ 8 3/ 8 41 SE CHARLESTON 0610 75 74 170/ 14/ 16 1020.8 $$

USA.gov is the U.S. government's official web portal to all federal, state and local government web resources and services.